{"data":{"norad_id":53565,"intl_designator":"2022-101AQ","name":"STARLINK-4575","alt_names":[],"object_type":"PAYLOAD","status":"ACTIVE","operator":null,"country":"US","launch_date":"2022-08-19","launch_site_code":"AFETR","launch_vehicle":null,"mission":null,"orbit_class":"UNKNOWN","rcs_meters":null,"size_class":null,"mass_kg":null,"dimensions":null,"purposes":["comms"],"wikipedia_slug":null,"has_3d_model":false,"image_url":null,"decayed_at":null,"tle_current":{"epoch":"2026-09-20T23:10:15.397536Z","epoch_age_seconds":38031,"freshness":"FRESH","line1":"1 53565U 22101AQ  26263.96545599  .00000252  00000+0  18599-4 0  9995","line2":"2 53565  53.1566 241.5029 0001233  94.3046 265.8097 15.34394845226801","mean_motion":15.34394845,"eccentricity":0.0001233,"inclination_deg":53.1566,"raan_deg":241.5029,"arg_perigee_deg":94.3046,"mean_anomaly_deg":265.8097,"bstar":1.8599e-5,"rev_number":22680,"period_min":93.848073375142,"perigee_km":461.87508450557,"apogee_km":463.56203948716,"semimajor_km":6840.8555619964,"source":"CELESTRAK","updated_at":"2026-09-21T09:00:32.929086Z"}}}